Regional Weather Roundup
Issued by NWS Charleston, SC

Current Version | Previous Version | Graphics & Text | Print | Product List | Glossary On
Versions: 1 2 3 4 5 6 7 8 9 10 11 12 13 14 15 16 17 18 19 20 21 22 23 24 25 26 27 28 29 30 31 32 33 34 35 36 37 38 39 40 41 42 43 44 45 46 47 48 49 50
000
ASUS42 KCHS 181827
RWRCHS

REGIONAL WEATHER ROUNDUP
NATIONAL WEATHER SERVICE CHARLESTON SC
200 PM EDT FRI AUG 18 2017

NOTE: "FAIR" INDICATES FEW OR NO CLOUDS BELOW 12,000 FEET WITH NO
SIGNIFICANT WEATHER AND/OR OBSTRUCTIONS TO VISIBILITY.

NOT ALL STATIONS ARE QUALITY CONTROLLED. USE DATA WITH CAUTION...
ESPECIALLY DEWPOINT OBSERVATIONS.

SCZ027-030-031-034>040-042>050-181900-
...SOUTHEAST SOUTH CAROLINA...

CITY           SKY/WX    TMP DP  RH WIND       PRES   REMARKS
N CHARLESTON   MOSUNNY   94  75  54 SW9       29.94F HX 105
6HR MIN TEMP:  81; 6HR MAX TEMP:  94;

WATERFRONT PRK   N/A     88  80  77 SE8       29.81F HX 104
JOHNS ISLAND   FAIR      91  81  70 S13       29.94F HX 110
PINOPOLIS        N/A     91  75  59 CALM      29.87F HX 102
MONCKS CORNER  FAIR      93  72  49 W5        29.94F HX 100
SUMMERVILLE    FAIR      93  73  52 S3        29.95F HX 102
BEAUFORT MCAS  MOSUNNY   94  77  57 SW7       29.95F HX 108
6HR MIN TEMP:  81; 6HR MAX TEMP:  95;

BEAUFORT ARPT  FAIR      93  73  52 W5        29.94F HX 102
HILTON HEAD IS SUNNY     90  79  70 SE10      29.97F HX 105
WALTERBORO     PTCLDY    93  72  49 SW7       29.95F HX 100
ALLENDALE      NOT AVBL

...SOUTHERN MIDLANDS AND PEE DEE...

CITY           SKY/WX    TMP DP  RH WIND       PRES   REMARKS
GEORGETOWN     FAIR      91  75  59 W6        29.94F HX 102
KINGSTREE      FAIR      91  73  55 S8        29.93S HX 100
ORANGEBURG     PTSUNNY   94  71  47 SW8       29.94F HX 101
6HR MIN TEMP:  78; 6HR MAX TEMP:  94;

BARNWELL       FAIR      95  73  49 W7G13     29.95F HX 105
AIKEN          FAIR      91  72  52 SW8       29.98F HX  98
MANNING        MOCLDY    91  72  52 CALM      29.93F HX  98
COLUMBIA       MOSUNNY   96  72  45 W8        29.92F HX 104
6HR MIN TEMP:  80; 6HR MAX TEMP:  96;

SUMTER         MOSUNNY   93  72  49 SW13      29.90F HX 100
6HR MIN TEMP:  80; 6HR MAX TEMP:  95;

FLORENCE       MOSUNNY   92  73  53 SW8       29.92F HX 100
6HR MIN TEMP:  80; 6HR MAX TEMP:  94;

MYRTLE BEACH   MOSUNNY   90  79  70 S14       29.94F HX 105
N MYRTLE BEACH MOSUNNY   88  79  74 S15       29.93F HX 103
6HR MIN TEMP:  81; 6HR MAX TEMP:  90;


$$

GAZ063-065-086>088-099>101-113>116-118-119-134>141-150-181900-
...SOUTHEAST GEORGIA...

CITY           SKY/WX    TMP DP  RH WIND       PRES   REMARKS
SAVANNAH ARPT  MOSUNNY   95  71  45 W9        29.96F HX 102
6HR MIN TEMP:  79; 6HR MAX TEMP:  96;

HUNTER AAF     MOSUNNY   94  75  53 W6        29.93F HX 105
6HR MIN TEMP:  80; 6HR MAX TEMP:  94; 6HR PCP: TRACE;

FORT STEWART   MOSUNNY   94  69  43 SW3       29.94F HX  99
6HR MIN TEMP:  80; 6HR MAX TEMP:  94;

STATESBORO     MOSUNNY   94  67  40 W6        29.96F HX  97
SYLVANIA       PTCLDY    93  77  58 NW3       29.97F HX 107
CLAXTON        FAIR      95  72  46 SW5       29.96F HX 103

...CSRA...CENTRAL AND FAR SOUTHEAST GEORGIA...

CITY           SKY/WX    TMP DP  RH WIND       PRES   REMARKS
THOMSON        MOSUNNY   91  73  55 N8        30.00F HX 100
AUGUSTA-BUSH   PTSUNNY   95  75  52 SW9       29.94F HX 107
6HR MIN TEMP:  81; 6HR MAX TEMP:  96;

AUGUSTA-DANIEL MOSUNNY   93  70  46 W6        29.96F HX  99
SWAINSBORO     FAIR      93  73  52 W7        29.97F HX 102
VIDALIA        MOSUNNY   95  72  46 W3        29.97F HX 103
EASTMAN        MOCLDY    95  58  28 W6        29.99F HX  94
HAZLEHURST     FAIR      96  51  22 SW6       29.97F HX  93
ALMA           SUNNY     95  70  44 W6        29.97F HX 101
6HR MIN TEMP:  79; 6HR MAX TEMP:  95;

WAYCROSS       MOSUNNY   95  69  42 W3        29.97F HX 100
JESUP          FAIR      97  66  36 N6        29.97F HX 100
BAXLEY         FAIR      91  68  46 W7        29.97F HX  95
BRUNSWICK      PTSUNNY   91  73  55 SE7       29.97F HX 100
SAINT SIMONS   SUNNY     89  77  67 SE10      29.98F HX 101
6HR MIN TEMP:  81; 6HR MAX TEMP:  90;


$$

SCZ027-028-034-036>038-045-046-048>050-GAZ119-141-181900-
...LAKE AND SUPPLEMENTAL COASTAL OBSERVATIONS...

STATION/POSITION TIME  TEMP    WIND        PRES    WAVE   SWELL
                       AIR SEA DIR/SP/G            HT/PER HT/PER/DIR
                 (UTC) (F)     (DEG/KT/KT) (MB)    (FT/S) (FT/S/D)
WINYAH BAY       1745   92     240/  7     1014.0S
LAKE MURRAY      1820   90     240/  9/ 13 1012.2
ACE BASIN NERRS  1745   93     230/  2     1014.0F
FORT PULASKI     1800   89 87  160/  7/ 10 1014.9
SAPELO ISLAND    1800   94     190/  3     1015.0

$$

ANZ835-935-AMZ111-154-330-350-352-354-370-450-454-472-181900-
...C-MAN AND BUOY OBSERVATIONS...

STATION/POSITION TIME  TEMP    WIND        PRES    WAVE   SWELL
                       AIR SEA DIR/SP/G            HT/PER HT/PER/DIR
                 (UTC) (F)     (DEG/KT/KT) (MB)    (FT/S) (FT/S/D)
BUOY 41004       1810   84 85  230/ 10/ 12 1014.2
BUOY 41008       1750   86 86  160/  4/  4 1015.0F   1/ 7   2/110/ 7
FOLLY BEACH CMAN 1800   87     170/ 11/ 12 1015.1F
CAPERS NEARSHORE 1808   84 87  200/ 12/ 16 1014.0F
FRIPP NEARSHORE  1808   86     190/ 10/ 12 1014.1F


STATION/POSITION TIME  TEMP    WIND        PRES    WAVE   SWELL
                       AIR SEA DIR/SP/G            HT/PER HT/PER/DIR
                 (UTC) (F)     (DEG/KT/KT) (MB)    (FT/S) (FT/S/D)
5E ST. MARYS GA  1800      87                N/A     1/ 8
FRYING PAN BUOY  1810   85 84  210/ 12/ 16 1013.9
BUOY 41025       1750   85 86  190/ 14/ 16 1013.5F   2/ 5   2/ 70/ 8
CAPE LOOKOUT NC  1800   87     210/ 13/ 18 1013.2F
BUOY 41002       1750   84 85  230/ 10/ 10 1016.7F   3/ 4   2/240/ 4
BUOY 41010       1810   85 86  200/  4/  6 1016.5
ST AUGUSTINE FL  1800   83 84  130/  8/  8 1016.2S


$$




USA.gov is the U.S. government's official web portal to all federal, state and local government web resources and services.